Location: St. Louis
(38.6270°N, 90.1994°W)
Time: 06:57:50
(UTC-06:00)

SR - Visible Passes

Search period start: 09 December 2021 00:00
Search period end: 19 December 2021 00:00
Orbit: 583 x 871 km, 66.7° (Epoch: 09 December)

Date Brightness Start Highest point End Pass type
(mag) Time Alt. Az. Time Alt. Az. Time Alt. Az.
09 Dec ? 06:28:36 10° N 06:32:38 34° ENE 06:36:50 10° ESE visible
10 Dec ? 05:39:34 10° N 05:42:31 17° NE 05:45:33 10° E visible
11 Dec ? 06:30:32 10° NNW 06:34:55 71° ENE 06:39:36 10° SE visible
12 Dec ? 05:41:01 10° N 05:44:59 32° NE 05:49:08 10° ESE visible
13 Dec ? 04:52:28 11° NNE 04:54:51 16° NE 04:57:44 10° E visible
13 Dec ? 06:32:47 10° NW 06:37:07 55° WSW 06:41:44 10° SSE visible
14 Dec ? 05:43:43 15° NNW 05:47:17 65° ENE 05:51:58 10° SE visible
15 Dec ? 04:55:35 23° NNE 04:57:20 30° NE 05:01:25 10° ESE visible
15 Dec ? 06:35:28 10° NW 06:39:13 26° WSW 06:43:10 10° SSW visible
16 Dec ? 04:07:33 15° NE 04:07:33 15° NE 04:09:52 10° E visible
16 Dec ? 05:46:59 25° NW 05:49:30 60° WSW 05:54:12 10° SSE visible
17 Dec ? 04:59:00 53° NNE 04:59:40 60° ENE 05:04:20 10° SE visible
17 Dec ? 06:39:09 10° W 06:41:14 13° WSW 06:43:21 10° SW visible
17 Dec ? 19:24:14 10° SSW 19:24:23 11° SSW 19:24:23 11° SSW visible
18 Dec ? 04:11:05 24° E 04:11:05 24° E 04:13:42 10° ESE visible
18 Dec ? 05:50:31 26° W 05:51:37 29° WSW 05:55:44 10° S visible
18 Dec ? 18:35:22 10° SSE 18:36:39 16° SSE 18:36:39 16° SSE visible
